RH
83 71 60 55 56 67 79 75 70 75 79 74 69 73 78 78 83 91 93 97 100 98 95 88 82 85 91 88 83 81 76 71 68 65 62 60 60 61 63 65 65 65 61 56 53 53 51 49 47 45 42 40
76 70 68 68 67 65 69 71 74 81 85 84 85 88 88 85 88 92 93 95 93 86 84 87 90 95 100 99 94 90 88 86 85 85 82 78 76 74 72 70 66 63 60 58 57 57 55 53 51 49 47 45
91 94 95 94 91 89 90 93 94 95 96 97 97 96 94 95 99 96 90 92 91 88 89 93 94 95 96 89 79 76 79 81 81 81 79 76 73 69 65 62 60 59 59 60 61 61 60 58 55 52 50 48
93 93 97 100 101 100 100 100 99 97 97 98 99 99 98 102 106 102 99 102 98 90 86 86 88 88 84 75 69 71 73 75 75 76 75 73 72 68 65 63 62 61 60 60 60 60 60 58 55 51 48 46
93 84 80 86 95 100 102 102 101 101 99 100 104 104 101 101 101 98 97 97 92 84 77 75 76 77 77 77 80 83 85 86 85 85 83 80 78 74 70 67 65 64 62 60 58 57 56 54 51 48 45 43
100 93 83 76 79 89 95 95 93 91 86 86 94 98 97 94 92 91 90 88 84 81 76 74 76 80 85 89 93 94 94 93 89 86 84 80 77 74 72 71 71 70 67 64 61 59 56 55 53 51 48 45
100 102 100 88 80 81 82 80 80 81 80 81 86 90 90 87 84 83 81 79 79 81 83 85 87 90 94 96 97 95 92 87 83 78 75 72 71 70 71 73 74 72 69 66 64 62 60 58 56 55 53 51
100 105 109 104 96 92 91 90 90 91 93 94 90 86 85 84 83 84 84 85 88 91 93 92 92 93 95 96 93 87 81 75 71 68 67 67 67 69 71 72 73 71 67 65 62 60 58 56 54 52 51 49
100 102 105 106 102 99 99 98 97 94 93 92 90 92 93 93 93 93 94 95 96 97 96 94 93 93 91 87 81 74 69 66 65 64 64 64 66 67 68 68 67 66 64 61 59 56 54 51 48 45 42 40
100 100 101 104 102 100 100 99 99 98 96 97 99 100 100 99 99 98 97 98 98 97 95 92 88 84 79 74 69 66 65 64 62 61 60 60 61 61 62 62 62 61 60 57 54 51 47 43 39 34 30 27
99 99 99 100 100 100 101 100 100 101 100 100 101 101 101 100 100 99 98 97 95 91 86 81 76 72 68 65 64 63 62 60 58 56 56 56 56 56 56 56 55 53 51 49 45 40 36 33 31 27 24 24
95 96 96 95 95 96 96 97 98 99 100 101 102 102 102 100 98 95 93 90 85 80 73 68 66 64 63 62 61 60 59 58 57 56 56 55 55 54 51 48 44 40 38 34 32 31 33 34 33 30 29 29
88 89 89 87 87 89 90 91 92 93 95 96 96 93 91 88 85 82 80 77 72 67 64 62 62 62 62 62 61 62 63 63 63 62 60 57 51 45 39 35 33 32 31 32 34 37 39 37 33 30 27 25
84 83 82 80 79 79 80 81 81 81 81 81 79 77 75 72 71 70 69 67 64 63 63 64 64 65 65 65 67 67 68 66 64 59 52 43 36 33 32 34 36 37 38 39 38 37 33 29 25 23 21 20
87 82 78 76 75 73 73 73 73 73 72 72 72 70 69 68 67 67 67 67 67 69 70 71 71 71 71 70 70 68 65 58 49 41 34 31 32 34 37 38 38 36 34 32 29 26 24 22 22 21 20 20
88 84 79 76 74 73 72 72 72 72 72 72 72 73 73 74 75 76 77 77 77 77 76 76 74 72 71 68 64 56 48 39 32 30 29 32 33 34 33 31 30 27 26 24 23 23 22 22 21 20 20 19
92 89 85 82 80 80 79 78 77 78 79 81 83 86 87 88 88 87 86 84 82 79 75 71 68 64 59 52 45 38 32 30 29 30 30 30 29 29 28 26 26 24 24 23 23 23 22 22 21 20 20 19
97 95 94 93 93 94 92 90 91 93 95 97 98 99 97 94 90 86 83 79 73 68 62 57 52 46 41 36 33 31 31 30 30 30 29 29 29 28 28 27 27 26 26 25 25 25 24 24 24 23 23 23
100 99 99 99 98 99 99 99 100 101 100 98 95 91 85 80 74 69 64 58 52 48 44 40 37 35 33 32 32 32 32 32 32 31 32 32 33 34 33 33 33 32 32 31 30 29 28 28 28 27 27 26
82 82 82 81 81 82 84 84 82 78 75 72 68 63 59 54 50 46 43 40 37 36 35 34 34 34 34 34 35 35 35 37 38 39 40 41 42 43 43 42 42 41 39 38 37 35 34 33 32 32 31 30
49 50 50 51 52 54 54 53 51 48 47 45 43 41 39 38 37 36 36 35 35 35 36 37 38 39 40 42 43 45 46 49 51 52 53 52 52 52 51 50 48 47 45 43 42 40 38 36 35 34 33 32
35 36 36 36 37 37 36 36 35 35 36 36 36 36 36 36 37 37 37 38 40 42 44 46 49 51 54 57 59 61 62 63 63 63 62 61 59 57 55 53 51 49 47 45 44 42 40 38 36 35 33 31
35 35 35 34 34 34 34 34 35 36 37 38 39 38 39 40 41 43 45 48 52 56 61 64 67 69 70 72 72 73 72 71 70 68 66 63 61 58 56 54 52 50 47 46 44 42 40 38 36 33 31 29
36 36 36 36 36 37 37 37 39 41 43 44 45 47 50 53 55 58 63 69 74 78 81 82 82 81 80 79 79 77 76 73 71 68 65 62 59 57 54 52 50 48 46 44 42 40 37 34 32 30 28 26
38 39 40 42 42 43 43 45 51 56 59 62 65 69 73 76 77 82 87 92 93 92 91 88 86 84 82 81 79 76 74 71 69 65 62 58 55 52 49 48 46 44 43 40 38 35 32 30 28 26 25 23
50 53 55 55 56 58 62 67 75 82 85 87 90 92 92 92 94 97 98 98 96 94 90 86 83 82 80 78 76 74 71 67 63 59 55 52 49 47 45 43 41 40 38 36 33 30 29 27 26 25 23 21
68 70 70 71 74 79 84 89 95 99 101 101 98 96 94 96 97 97 96 95 94 91 87 83 81 80 77 75 72 68 64 59 55 52 50 48 46 43 41 38 37 36 35 34 31 29 28 26 25 24 22 21
75 77 79 83 87 90 93 96 98 99 101 100 94 91 92 94 94 93 93 92 90 87 83 81 78 75 72 69 65 60 57 54 51 49 47 44 42 39 37 36 35 35 35 33 31 29 27 25 23 22 20 19
77 80 84 89 91 92 92 94 95 97 99 96 91 89 90 90 89 90 90 88 85 82 79 75 71 68 64 61 58 56 54 51 48 46 44 41 39 37 35 34 34 35 34 33 30 27 24 21 20 19 17 15
85 87 90 94 96 96 95 96 98 99 98 94 91 91 90 88 87 86 85 82 79 76 72 68 65 60 58 56 54 53 51 49 47 44 42 40 39 37 34 33 33 33 32 30 27 23 20 18 16 15 14 13
94 95 97 99 99 99 99 100 102 100 97 94 92 91 89 86 83 80 78 76 72 69 65 62 59 56 54 53 51 50 49 48 46 44 42 40 38 36 33 31 30 29 27 25 23 20 18 16 14 13 12 12
Wind_Speed
101 99 96 93 92 92 92 92 89 86 85 85 85 84 84 83 83 83 83 84 86 89 90 91 91 90 90 90 90 91 92 93 94 94 95 95 95 94 94 94 95 97 99 100 101 101 100 100 100 99 99 98
93 89 86 84 83 83 84 84 83 83 84 85 85 85 85 85 86 86 87 89 91 93 93 93 92 91 91 92 94 96 97 98 99 99 99 99 99 99 99 101 102 104 105 105 105 104 103 103 103 103 103 102
82 79 79 80 80 80 81 82 82 84 85 86 87 88 88 88 89 90 92 94 94 94 94 95 95 95 96 99 102 104 104 104 104 104 105 105 105 105 106 106 107 107 106 106 105 104 104 104 104 104 104 104
87 84 82 81 81 81 83 84 85 87 88 89 90 91 91 92 93 94 95 96 96 98 100 101 102 103 106 109 110 108 107 107 107 107 108 108 108 108 108 108 108 107 106 105 104 104 104 104 105 105 105 105
98 98 96 92 89 87 87 88 89 90 92 93 93 94 95 96 97 99 100 102 104 107 109 108 109 110 111 112 111 109 108 108 108 109 109 110 110 110 110 109 108 107 106 105 105 105 105 105 105 105 105 105
103 104 105 104 101 99 98 98 99 100 102 101 101 101 101 103 104 106 108 111 112 112 111 111 111 112 112 111 110 110 110 110 111 111 111 111 111 111 110 110 109 108 108 107 107 107 107 107 107 107 108 107
103 103 104 104 104 105 106 107 108 108 107 107 107 107 108 109 111 112 113 114 114 113 113 113 113 112 112 111 111 111 112 112 112 112 112 111 111 111 110 110 110 109 109 110 110 110 110 110 111 111 111 111
101 103 104 103 103 104 105 106 107 107 107 108 109 110 111 113 114 114 114 114 114 114 114 113 112 112 112 112 112 113 113 112 111 110 110 110 110 110 111 111 111 111 112 112 112 112 112 113 113 114 114 114
101 102 103 104 104 105 106 106 108 109 110 111 111 112 113 114 114 115 115 115 114 114 113 112 112 113 113 113 113 112 111 110 109 109 109 110 110 111 112 112 113 113 114 114 115 115 115 116 116 116 115 115
104 104 104 105 106 107 108 110 111 112 113 113 114 114 114 114 114 114 114 114 113 113 113 113 114 114 113 112 112 111 110 110 111 111 111 112 112 113 113 114 115 116 116 117 117 118 118 118 117 116 115 114
105 106 106 107 108 109 111 112 112 113 114 114 114 114 114 114 114 114 114 113 114 114 114 114 113 113 112 112 112 112 112 113 113 114 114 115 115 116 116 117 118 119 119 119 119 119 118 117 116 115 114 113
102 103 105 106 107 109 110 110 111 111 112 112 112 112 113 113 113 114 114 114 114 113 113 113 112 112 112 113 113 114 114 115 115 116 116 117 118 119 119 120 120 120 120 119 118 117 116 115 114 114 114 114
99 101 102 104 105 105 106 107 108 108 109 110 111 111 112 113 113 113 113 113 113 113 113 113 113 113 113 114 114 115 115 116 117 118 119 120 120 120 120 120 119 118 117 116 115 114 114 114 113 114 114 114
100 100 102 103 104 105 105 106 107 107 108 109 110 110 111 111 111 112 112 113 113 114 114 115 115 115 115 116 116 117 117 118 119 119 120 120 119 119 118 117 115 115 114 113 113 113 113 113 113 113 113 113
102 102 102 103 104 105 106 106 107 108 108 109 109 109 110 110 111 112 113 114 115 115 116 116 117 117 117 118 118 118 119 119 119 118 118 117 116 115 115 114 113 113 113 113 113 113 113 113 113 113 114 113
104 104 104 103 104 105 106 107 108 108 109 109 110 110 111 111 112 113 114 115 116 117 117 118 118 118 118 118 119 118 118 117 117 116 115 114 114 113 113 113 113 114 113 113 114 113 114 114 114 114 114 114
106 106 106 105 105 106 107 108 108 109 110 111 112 112 113 114 114 115 116 116 117 118 118 118 118 118 118 118 117 117 116 115 114 114 113 113 113 113 114 114 114 114 114 114 115 114 114 115 115 115 115 115
107 107 107 107 107 108 108 109 110 111 112 112 113 114 115 115 116 116 117 117 118 118 118 117 117 116 116 115 114 114 114 113 113 113 113 113 113 114 114 114 115 115 115 115 115 115 115 115 115 115 115 115
107 107 108 108 108 109 109 110 111 112 113 113 114 115 115 116 116 116 116 116 116 115 115 114 114 113 113 112 112 112 112 112 112 113 113 113 113 113 114 114 115 115 115 116 116 116 116 115 115 115 115 115
106 106 107 107 108 108 109 110 111 112 112 113 114 114 114 114 114 114 113 113 113 112 112 111 111 111 111 111 111 111 111 111 112 112 112 113 113 113 114 114 115 115 116 116 116 116 116 116 116 116 116 116
103 104 104 105 106 107 108 109 109 110 110 110 111 111 111 111 110 110 110 110 110 109 109 109 109 109 109 109 110 110 111 111 112 112 113 113 114 114 114 115 115 115 116 116 116 117 117 117 117 117 118 118
100 101 102 103 104 105 105 106 106 106 106 106 107 107 108 107 107 107 107 107 107 107 107 107 107 108 108 109 109 110 111 112 112 113 113 114 114 115 115 115 115 116 116 117 117 118 118 119 119 120 120 120
98 99 100 100 101 102 103 103 103 103 103 104 105 106 106 106 106 106 106 106 106 106 106 107 107 108 109 109 110 110 111 112 113 114 114 115 115 115 116 116 116 117 118 118 119 120 121 121 122 122 122 122
96 97 98 98 99 100 101 101 100 100 101 103 104 104 104 104 104 104 104 104 105 105 106 107 108 108 109 110 110 111 112 113 114 115 116 116 117 117 117 118 118 119 119 120 121 122 123 123 124 124 124 124
95 95 96 97 98 99 99 98 98 99 101 102 103 103 103 103 103 103 103 104 105 106 107 108 108 109 110 111 111 112 114 115 116 117 118 118 119 119 120 120 120 121 121 122 123 124 124 124 124 124 124 124
93 94 95 96 96 97 97 97 97 98 100 101 102 103 103 103 103 103 104 105 106 107 108 109 109 110 111 112 113 115 116 117 118 119 120 120 121 122 122 122 122 122 122 123 124 124 124 123 123 123 124 124
92 94 95 95 95 96 96 96 97 98 100 102 103 104 104 104 104 105 106 106 107 108 110 110 111 112 113 114 116 117 119 120 121 121 122 122 123 123 124 123 123 123 123 124 124 123 123 123 122 122 122 122
93 93 94 94 94 95 96 97 98 99 101 104 105 106 105 106 106 107 107 108 109 110 111 112 113 115 116 117 119 120 121 122 123 123 124 124 124 125 124 123 122 122 123 123 123 123 122 122 122 122 121 121
93 93 94 94 95 97 98 99 100 101 104 106 108 108 108 108 108 108 109 111 112 113 114 115 117 118 119 120 120 121 122 123 124 124 125 125 125 125 124 123 121 121 121 122 123 123 123 122 121 121 121 121
94 94 95 96 97 99 100 101 102 104 107 109 109 109 110 111 111 111 112 113 114 116 117 119 120 120 121 121 122 122 123 124 125 125 125 125 125 124 124 122 121 121 121 122 123 123 123 123 122 121 121 121
94 95 96 97 99 100 101 102 104 107 109 110 111 111 113 114 114 115 115 116 117 118 120 121 122 122 122 122 122 123 123 124 125 125 125 125 124 124 123 122 122 121 121 122 123 123 123 123 122 122 121 120
Wind_Direction
270 272 272 272 271 270 269 269 270 269 269 270 272 273 273 273 273 272 272 272 273 274 275 275 276 276 276 276 277 277 278 278 278 278 279 278 278 277 277 277 277 277 278 278 278 278 277 277 276 275 275 275
272 272 271 271 270 269 268 268 268 268 269 270 271 272 272 272 271 271 271 271 272 273 274 273 273 273 274 275 277 277 278 278 278 278 278 278 277 277 276 277 277 277 278 278 278 278 277 277 276 276 275 275
270 269 269 269 268 267 267 267 267 268 269 270 270 271 270 270 269 269 270 271 271 272 272 272 272 272 273 275 277 278 277 277 276 277 277 277 276 276 276 276 277 277 278 278 277 277 277 276 276 275 275 275
266 266 266 266 266 265 265 265 266 268 269 269 269 269 269 268 268 268 269 270 271 272 273 273 273 273 275 277 278 278 278 277 277 277 278 278 278 278 278 278 278 278 278 277 277 276 276 276 275 275 274 274
264 264 265 264 264 264 264 264 265 267 268 268 268 268 268 268 269 269 270 271 272 273 274 275 275 275 276 278 279 279 279 279 279 279 279 279 279 279 279 279 279 279 278 278 277 277 276 276 276 275 275 274
264 264 265 264 264 263 263 264 265 267 268 268 268 268 268 269 270 270 271 272 273 274 275 275 276 276 277 278 278 278 279 279 279 279 279 279 279 279 279 279 279 279 278 278 278 278 277 277 277 276 276 276
264 264 265 265 264 263 264 265 266 266 267 267 268 268 269 269 270 271 272 273 274 274 275 276 276 277 277 277 277 278 278 278 278 278 278 278 278 278 277 277 277 277 277 277 277 277 277 277 277 277 276 276
263 263 264 264 264 264 264 264 265 266 266 267 268 269 269 270 271 272 272 273 274 274 275 276 276 276 276 277 277 277 277 277 277 277 277 276 276 276 276 276 276 276 276 275 275 275 275 275 275 275 275 275
262 262 262 263 263 263 263 264 265 265 266 267 268 269 270 271 271 272 272 273 274 274 275 275 276 276 276 276 276 276 276 276 275 275 275 275 275 275 275 275 275 275 275 274 274 274 275 275 275 274 274 274
262 262 262 262 263 263 264 264 265 266 267 268 269 270 270 271 271 272 272 273 273 274 274 275 275 275 275 275 275 275 275 275 275 275 275 275 275 275 275 275 275 274 274 274 274 275 275 275 274 274 274 273
263 263 263 264 264 264 265 266 266 267 268 268 269 270 270 271 271 272 272 272 273 273 274 274 274 274 274 274 274 274 274 274 274 274 275 275 275 275 275 275 275 275 275 275 275 275 275 275 274 274 273 273
264 264 265 265 265 266 266 267 267 268 268 268 269 269 270 270 271 271 272 272 272 273 273 273 273 273 274 274 274 274 274 275 275 275 275 276 276 275 275 275 275 275 275 275 275 275 274 274 274 273 273 273
266 265 265 265 266 266 266 266 267 267 268 268 268 269 269 270 270 271 271 272 272 272 273 273 274 274 274 275 275 275 276 276 276 276 276 276 276 276 276 275 275 275 274 274 274 274 274 273 273 273 272 272
267 267 266 266 265 265 266 266 267 267 267 268 269 269 270 270 271 271 271 272 272 273 274 274 275 275 276 276 276 277 277 277 277 277 277 276 276 276 275 275 275 274 274 274 274 273 273 273 273 272 272 272
268 268 268 267 267 267 267 267 268 268 269 269 270 271 271 271 272 272 272 273 273 274 275 275 276 276 276 277 277 277 277 277 277 276 276 276 276 275 275 275 275 274 274 274 274 273 273 273 272 272 272 271
268 269 269 269 269 269 269 269 270 270 270 271 272 272 273 273 274 274 274 274 275 275 276 276 276 276 276 276 276 276 276 276 276 276 276 276 275 275 275 275 275 274 274 274 273 273 273 273 272 272 271 271
269 270 270 270 271 271 271 271 271 272 272 273 273 274 274 274 274 275 275 275 275 275 276 276 276 276 276 276 276 276 276 276 275 275 275 275 275 275 275 274 274 274 274 274 273 273 273 272 272 272 271 271
270 270 271 271 271 272 272 272 272 273 273 273 273 274 274 274 274 274 274 275 275 275 275 275 275 275 275 275 275 275 275 275 275 275 275 275 275 275 274 274 274 274 274 274 273 273 273 272 272 272 272 272
270 270 271 271 271 272 272 272 272 272 272 272 273 273 273 273 273 274 274 274 274 274 274 274 274 274 274 274 274 274 274 275 275 275 274 274 274 274 274 274 274 274 274 274 274 274 274 274 274 273 273 273
269 270 270 270 271 271 271 271 271 271 271 272 272 272 273 273 273 273 273 273 273 273 273 274 274 274 274 274 274 274 274 274 274 274 274 274 274 274 274 274 274 274 275 275 275 275 275 275 275 275 275 275
269 269 269 270 270 270 270 270 270 271 271 272 272 272 272 272 272 272 272 272 272 273 273 273 273 273 273 274 274 274 274 274 274 274 274 274 274 274 274 275 275 275 275 275 276 276 276 276 276 276 276 276
269 269 269 269 269 269 270 270 270 271 271 271 271 271 271 271 271 271 272 272 272 272 273 273 273 273 274 274 274 274 274 274 274 274 274 274 275 275 275 275 276 276 276 277 277 277 277 277 277 277 277 276
268 268 269 269 269 270 270 270 270 271 271 271 270 270 271 271 271 271 272 272 272 273 273 273 273 273 273 274 274 274 274 274 275 275 275 275 275 275 276 276 277 277 277 277 278 278 277 277 277 277 277 276
268 268 269 269 269 269 270 270 270 270 270 270 270 270 270 271 271 271 272 272 272 272 273 273 273 274 274 274 274 275 275 275 275 275 275 276 276 276 276 277 277 277 278 278 277 277 277 277 277 276 276 276
268 269 269 269 269 269 269 270 270 269 269 269 270 270 270 270 271 271 272 272 272 273 273 273 274 274 275 275 275 275 275 275 275 275 276 276 276 277 277 277 277 277 277 277 277 276 276 276 276 276 276 275
268 268 268 268 268 269 269 269 269 269 269 269 269 269 270 270 271 271 272 272 273 273 273 274 274 274 275 275 275 275 275 275 276 276 276 277 277 277 277 277 277 277 277 277 276 276 276 276 276 276 276 276
268 267 268 268 268 269 269 269 269 269 269 269 269 270 270 271 271 272 272 273 273 273 273 274 274 275 275 275 275 275 276 276 276 277 277 277 277 277 277 277 277 277 277 277 276 276 276 276 276 275 275 276
268 268 268 269 269 269 269 269 269 269 270 270 270 270 271 271 271 272 273 273 273 273 274 274 274 274 274 275 275 276 276 277 277 277 277 277 277 277 277 277 277 277 277 277 277 277 276 276 276 276 276 276
269 269 269 270 270 270 270 270 270 271 271 271 271 271 272 272 272 273 273 273 273 274 274 274 274 274 275 275 276 276 277 277 277 278 278 278 278 277 277 277 277 277 277 277 277 277 277 277 277 276 276 276
271 270 270 270 270 271 271 271 271 271 271 271 272 273 273 273 273 273 273 273 274 274 274 274 274 275 275 276 276 277 277 278 278 278 278 278 278 278 278 278 278 278 278 278 278 278 278 277 277 277 276 276
271 271 271 271 271 272 272 272 272 272 272 272 273 273 273 273 273 273 273 273 274 274 275 275 275 275 276 276 277 277 278 278 278 278 278 278 278 278 278 278 278 278 278 278 278 278 278 278 277 277 277 277